Wind_Speed
14 14 14 14 14 14 13 12 11 11 10 10 9 9 9 8 8 8 8 10 10 8 9 12 13 16 18 17 17 15 14 14 12 11 11 11 10 11 12 11 11 11 9 9 9 9 9 9 9 9 9 9 8 8 9 9 10 11 11 12 10 7 11 13 9 10 12 10 8 9 11 17 20 20 16 11 8 7 4 4 9 9 6 9 8 6 13
14 15 15 15 14 14 13 12 11 10 10 9 9 8 8 8 8 8 10 11 10 8 11 13 13 16 17 16 16 15 14 13 12 11 12 11 11 11 12 11 10 10 9 8 8 7 7 7 7 7 7 7 8 7 8 8 9 11 11 12 10 7 9 11 8 7 7 6 5 7 11 16 17 19 18 12 7 7 5 5 7 5 3 11 10 7 12
16 16 16 15 15 14 13 12 11 10 9 9 8 8 8 7 7 8 11 11 8 9 13 13 13 16 16 15 15 14 13 13 12 11 12 12 11 10 11 11 9 9 8 8 8 6 6 5 5 6 5 6 6 6 7 8 8 10 11 11 10 7 10 11 7 4 4 4 5 9 16 18 16 18 18 13 9 8 5 6 6 6 10 18 15 13 19
18 18 17 16 16 14 13 12 11 10 9 8 7 7 7 6 6 7 10 10 8 10 14 12 12 14 15 15 15 13 13 13 12 12 12 12 11 10 11 9 8 7 6 6 7 6 5 5 4 4 4 4 5 5 6 7 8 10 11 11 10 8 9 11 8 7 7 7 8 13 19 20 17 17 15 11 10 10 8 6 6 10 17 21 16 17 26
18 19 19 17 16 14 13 12 11 10 9 8 7 8 7 6 6 6 7 9 10 12 14 12 12 12 12 14 15 13 12 12 12 12 11 11 10 9 9 8 7 6 5 5 5 5 5 4 3 3 3 3 4 4 5 7 8 9 10 10 11 8 7 9 10 11 11 10 10 15 20 20 18 15 11 10 11 12 11 8 10 14 15 17 21 23 28
18 19 19 18 16 14 13 12 11 10 9 8 8 8 6 6 6 6 6 8 10 12 13 12 12 11 11 13 15 13 12 12 12 11 10 10 9 8 8 7 6 5 5 4 4 3 3 3 2 2 3 4 4 4 5 6 8 10 10 10 12 9 7 10 13 13 13 12 11 16 22 22 18 12 8 9 13 14 13 13 15 17 16 21 28 29 29
18 19 20 19 17 14 13 11 10 10 9 8 8 8 7 6 7 8 8 9 11 12 13 13 12 11 11 13 14 13 12 11 11 11 9 9 8 7 6 5 4 4 4 3 3 3 3 3 3 3 4 4 6 6 6 6 8 10 10 11 12 10 9 13 16 15 13 9 10 17 24 22 17 11 8 9 14 16 17 18 18 20 23 26 28 29 31
17 19 20 20 18 15 13 11 10 9 8 8 9 8 7 6 7 9 8 9 12 13 13 13 12 11 11 13 13 13 12 11 10 10 8 7 7 6 4 4 3 2 3 3 3 4 4 4 4 5 5 6 7 7 7 7 9 10 11 12 12 12 13 14 17 18 12 6 11 20 23 21 19 14 10 10 14 17 19 21 21 23 27 28 27 30 31
17 19 21 21 19 17 14 12 10 8 8 9 9 8 7 7 8 9 7 8 13 14 12 12 12 11 12 13 13 12 11 10 9 8 7 6 5 4 3 3 2 2 2 3 3 4 5 5 6 7 7 8 8 8 9 9 9 10 12 13 13 14 14 15 17 16 11 9 15 18 20 23 21 15 11 12 14 17 19 22 23 26 28 29 29 31 28
17 20 21 21 20 17 14 12 9 8 8 9 8 7 8 7 8 9 7 7 13 14 12 13 13 12 13 12 12 11 10 9 8 6 6 5 3 3 2 2 3 3 3 3 4 5 6 7 8 8 9 9 10 10 10 10 11 11 12 13 14 15 16 16 15 14 13 13 14 16 19 19 14 10 12 14 15 18 20 24 27 27 27 29 30 29 25
18 21 22 22 21 18 15 11 9 8 8 9 8 7 8 7 7 10 8 7 12 14 12 12 13 13 13 12 11 10 9 8 7 5 4 3 2 2 2 2 3 4 4 4 5 7 8 8 9 10 10 11 11 12 12 12 12 13 13 14 16 15 16 17 14 13 15 16 15 15 12 8 8 13 17 15 16 19 22 27 31 29 27 28 29 26 25
19 22 23 22 21 18 15 11 9 9 8 9 8 7 9 7 7 11 10 7 12 15 12 12 13 12 12 11 9 9 7 6 5 4 3 2 1 2 3 3 4 5 6 6 7 8 9 10 11 12 11 12 13 13 13 13 13 14 14 14 15 17 17 16 14 14 16 18 16 9 5 8 15 19 16 14 17 21 26 32 33 31 30 30 26 24 27
20 22 23 22 20 18 14 11 9 9 9 8 7 8 9 8 8 12 11 7 11 15 13 13 13 12 11 10 8 7 6 5 3 2 1 1 2 3 4 4 6 6 7 8 9 9 11 12 12 12 12 13 14 14 13 13 13 14 15 14 15 17 16 15 15 14 14 15 11 6 10 19 23 19 14 16 21 25 31 37 37 34 31 27 24 27 33
20 23 23 21 20 17 14 11 10 11 9 7 7 9 10 8 9 12 11 9 11 14 13 12 12 11 9 8 7 6 4 3 2 1 1 2 3 4 5 6 7 8 8 9 10 11 12 13 13 14 14 13 13 14 14 14 14 15 15 15 16 17 16 16 16 12 12 15 15 15 17 19 18 15 15 19 25 29 32 38 40 35 26 23 27 33 36
21 22 22 21 19 17 14 12 11 11 9 6 7 9 10 10 10 11 12 11 10 12 12 10 10 10 8 7 6 4 3 2 1 1 2 4 4 5 6 7 8 9 10 11 11 12 13 14 15 15 13 12 13 14 15 17 17 16 16 16 16 17 16 16 14 12 14 15 15 14 11 9 13 16 19 23 28 30 33 39 41 33 26 29 35 36 36
21 22 21 20 18 16 14 12 11 11 9 7 7 9 10 10 10 8 11 12 9 8 10 9 8 8 6 5 4 3 2 2 2 3 4 5 6 7 8 9 10 11 12 12 13 13 14 14 15 14 12 13 15 15 16 17 17 16 17 17 17 17 17 16 14 14 14 13 11 8 6 9 17 21 22 24 28 32 35 36 35 33 33 38 39 38 38
21 21 21 19 18 16 13 12 11 11 10 6 6 9 10 10 9 7 8 11 9 7 8 8 6 5 4 3 2 2 3 3 4 5 6 7 8 9 10 11 12 12 13 14 14 15 15 15 15 15 15 16 17 17 17 16 16 17 18 18 19 18 18 18 16 15 15 14 14 12 13 18 23 23 23 25 30 34 30 22 26 36 40 40 40 39 39
21 21 21 20 18 16 14 12 11 11 10 6 5 9 10 9 8 6 6 8 8 7 6 6 5 4 3 2 2 3 4 5 6 7 8 9 10 11 12 12 13 14 15 16 16 16 16 17 17 16 17 18 18 17 16 16 17 19 20 19 19 19 17 17 17 17 16 15 17 18 21 23 22 20 23 28 32 32 24 21 31 41 40 39 40 40 39
21 21 21 20 18 16 15 13 12 11 10 7 5 8 9 8 8 6 4 5 6 6 4 3 3 3 3 3 3 5 6 7 8 9 10 11 11 13 14 14 14 15 16 17 16 17 18 18 17 16 18 19 18 17 18 19 20 21 21 21 19 17 16 16 17 16 16 17 19 21 21 21 20 23 28 31 30 29 29 33 38 38 37 39 40 39 39
20 20 20 19 18 17 15 14 13 12 11 8 6 7 8 6 7 6 3 2 4 4 2 2 2 3 3 4 5 7 8 9 10 11 11 12 13 14 15 15 16 17 17 17 17 17 18 19 18 17 18 19 19 20 22 23 23 22 22 21 20 19 17 16 16 16 15 16 15 14 15 21 26 29 31 30 29 31 35 37 36 35 37 39 38 38 39
19 20 20 20 19 17 16 14 13 12 11 8 6 8 8 6 5 5 3 0 1 1 0 2 3 4 5 6 8 9 9 10 11 12 12 13 14 14 15 16 16 17 17 18 19 19 18 20 20 20 20 21 23 24 24 25 26 25 23 21 21 20 18 17 19 18 15 14 15 15 20 27 30 29 29 30 31 33 35 36 36 36 37 38 38 38 38
19 19 20 20 20 19 17 16 15 14 12 9 9 10 10 7 6 5 4 2 1 2 3 3 5 6 7 8 9 10 10 11 12 13 13 14 14 15 16 17 17 17 17 19 20 19 20 22 23 23 23 24 25 26 26 26 28 28 25 23 21 22 23 23 24 24 21 23 25 25 25 27 29 30 31 31 31 32 34 35 35 36 36 37 38 38 37
18 19 20 21 22 21 20 19 18 17 15 14 14 13 11 9 7 6 4 3 3 5 6 6 7 7 9 9 10 11 12 13 13 14 15 15 15 16 17 17 17 18 18 19 20 21 22 23 23 25 26 25 26 27 28 29 30 29 27 26 26 27 28 27 27 27 27 29 30 28 28 28 29 31 32 32 32 33 34 34 35 35 36 37 37 37 38
17 18 20 21 22 22 22 22 22 21 19 18 17 15 13 11 10 9 7 6 7 8 8 8 8 9 10 11 11 13 14 14 15 16 16 17 17 17 18 18 19 19 19 20 21 22 23 24 24 26 27 26 27 28 28 29 30 30 29 31 32 31 29 28 28 28 29 31 32 30 31 32 31 30 32 33 34 35 35 35 36 36 37 37 37 37 38
16 17 18 19 21 22 22 23 23 23 22 21 20 18 17 16 15 14 12 10 9 10 10 9 10 11 11 12 13 14 15 16 17 17 18 18 18 19 19 19 20 20 21 21 22 23 24 25 25 27 28 28 28 28 28 28 30 32 33 34 34 33 32 31 31 30 31 34 34 32 32 33 32 31 33 34 34 36 36 37 37 37 38 38 38 38 38
14 15 16 17 19 20 21 21 22 22 22 21 21 21 20 19 19 18 16 13 11 12 13 12 11 12 12 13 14 15 16 16 17 17 18 18 18 19 20 20 21 21 22 22 23 24 25 26 26 27 28 29 30 30 31 31 31 34 36 35 33 32 32 30 29 30 33 35 34 32 34 35 34 33 34 34 35 36 36 37 37 38 38 38 38 38 39
12 13 15 16 17 19 19 20 20 21 21 21 21 21 21 20 19 19 18 17 14 13 13 13 13 13 14 14 16 16 17 17 18 18 18 18 18 19 19 20 20 20 21 22 23 24 25 26 26 27 27 28 30 32 33 32 32 35 35 33 30 29 28 26 26 30 33 33 32 33 36 36 35 34 34 34 35 35 36 36 37 37 38 38 39 39 39
10 12 13 15 16 17 19 19 19 19 20 21 21 21 20 20 19 19 19 19 17 15 14 14 14 15 15 15 17 18 19 19 20 20 19 19 19 19 19 19 20 20 20 21 22 23 24 25 25 25 26 26 29 32 33 33 34 34 32 29 26 25 24 23 25 30 32 31 30 31 34 36 35 34 34 34 34 34 34 35 36 37 37 37 38 39 39
8 10 12 13 15 16 18 18 18 19 19 19 20 20 19 19 19 19 19 18 18 17 16 15 15 15 16 17 19 20 20 20 21 22 21 21 21 21 21 20 20 20 21 21 22 22 23 23 23 23 24 25 28 32 33 33 35 34 30 25 23 23 21 21 24 28 31 31 30 31 33 34 35 34 34 34 34 34 34 35 35 36 37 37 37 38 39
6 8 9 11 13 14 16 17 17 17 18 18 18 18 18 19 19 19 19 19 18 18 18 17 16 16 17 18 19 21 21 21 21 23 23 22 22 23 23 22 22 22 22 21 22 22 22 22 23 23 23 24 26 30 33 34 36 34 27 22 24 24 21 20 23 28 32 32 32 33 34 34 35 35 34 34 34 34 34 34 34 35 36 36 37 38 38
4 6 7 8 10 12 13 15 15 16 16 17 17 16 17 18 19 19 19 19 19 19 19 19 18 16 17 19 20 21 22 22 22 24 24 24 23 23 23 23 22 23 22 22 22 22 21 22 23 24 23 23 25 29 31 33 36 35 29 25 26 25 22 22 25 29 32 33 34 35 35 35 35 35 35 34 34 34 34 33 34 35 35 36 36 37 38
3 4 5 6 7 9 10 12 13 14 15 15 16 16 17 17 18 18 19 19 19 19 19 20 20 18 18 20 21 22 23 23 23 24 24 24 24 24 23 23 23 23 22 22 23 22 21 22 24 25 24 23 25 28 29 30 33 34 32 30 28 25 24 25 29 31 33 33 34 36 37 36 35 36 35 35 35 35 35 34 34 35 36 36 37 37 38
2 3 4 5 6 7 8 9 10 11 12 13 14 15 16 16 16 17 18 18 19 19 19 20 21 20 19 20 21 22 24 24 23 24 24 24 25 24 23 22 23 23 22 22 23 23 22 23 25 26 24 23 25 27 28 30 32 32 31 30 28 26 26 29 31 33 34 34 34 36 37 36 36 36 35 35 35 36 35 34 34 35 36 37 37 37 38
2 3 4 5 6 6 7 8 8 9 10 12 13 14 15 15 16 16 17 17 18 20 20 20 21 22 22 22 22 23 25 25 25 25 25 25 26 26 25 24 24 23 22 23 22 22 23 24 26 27 25 23 24 26 29 33 34 31 29 28 28 28 29 31 32 33 35 35 35 35 36 37 36 35 35 35 35 36 35 34 34 35 36 36 37 38 39
2 3 4 5 6 6 7 7 8 9 10 11 12 13 14 15 15 16 16 17 18 19 20 21 22 23 24 24 24 24 26 26 26 27 27 27 27 27 26 26 25 24 23 23 22 22 23 25 27 27 26 25 25 26 30 37 37 33 29 28 28 30 32 32 33 35 36 36 35 34 35 36 35 34 34 34 35 36 35 34 34 34 35 36 37 38 39
3 3 4 5 6 7 7 8 8 9 10 11 11 12 13 14 15 16 16 17 17 18 20 21 22 24 25 26 26 26 27 27 27 26 26 27 28 27 26 27 27 25 25 23 21 22 25 26 27 27 26 25 26 28 33 38 39 36 33 30 28 30 33 33 35 38 39 37 36 35 35 35 35 34 33 33 34 36 36 35 34 35 36 36 37 38 39
4 4 5 6 7 8 9 9 9 10 10 11 12 12 13 14 15 16 17 17 17 18 20 22 23 25 25 26 26 27 28 28 28 27 27 28 28 27 26 28 28 27 26 24 21 24 27 27 27 27 25 24 28 32 35 37 39 39 37 33 30 30 33 34 37 40 40 38 36 35 35 35 34 33 32 33 33 34 35 34 34 35 35 37 38 38 39
5 6 6 7 8 9 10 11 11 11 11 12 13 12 13 14 15 16 17 18 18 19 21 22 24 25 26 26 27 28 28 29 29 28 27 29 28 26 27 29 28 28 28 25 23 25 28 28 29 28 26 26 33 37 37 38 39 39 39 37 33 32 33 35 37 39 40 38 37 36 36 36 35 33 32 32 33 34 34 34 33 34 35 36 37 38 39
5 6 7 8 9 10 10 11 12 12 12 13 13 14 14 15 16 17 18 19 19 20 22 24 25 26 27 27 28 29 30 30 29 28 28 28 27 27 28 28 27 27 27 25 24 26 29 30 30 30 29 32 38 40 40 40 41 41 40 40 37 35 35 36 38 38 38 37 36 36 36 36 35 34 33 33 34 34 35 34 34 34 35 36 37 38 39
6 7 8 9 10 11 11 12 12 13 13 13 14 14 15 16 17 19 20 21 21 22 23 25 26 27 28 29 30 30 30 30 30 29 29 28 27 26 28 28 27 26 25 24 25 28 30 30 30 30 32 38 42 43 42 42 43 42 42 41 40 38 38 38 38 38 37 36 35 35 35 35 35 34 33 33 34 35 35 34 34 34 34 35 37 38 39
7 8 9 10 11 12 13 12 12 13 14 13 14 15 17 18 19 21 22 22 22 24 25 27 28 29 29 31 32 32 32 31 30 30 30 29 27 27 28 27 25 23 21 23 27 30 30 29 30 32 36 41 44 44 43 44 44 44 43 43 41 40 40 39 39 38 37 36 36 35 35 35 35 33 33 33 33 34 35 34 34 33 34 35 37 38 39
8 8 10 11 12 13 14 13 13 13 14 14 15 17 18 19 21 22 23 23 24 26 27 28 30 31 31 32 33 33 33 32 31 31 31 31 28 28 29 27 23 21 22 26 29 29 28 28 31 35 40 43 45 45 45 45 45 45 44 44 43 42 42 42 41 39 37 36 36 35 35 35 34 33 32 33 33 34 34 34 33 33 34 35 36 38 39
8 9 11 12 13 14 14 13 13 13 14 14 16 19 20 21 23 24 24 24 26 28 29 30 31 32 32 33 34 34 34 32 32 32 32 30 28 28 29 26 24 24 27 29 28 27 27 29 33 39 43 44 45 45 46 46 46 46 45 44 43 43 43 43 42 40 38 37 36 35 35 34 33 32 32 32 33 34 34 34 33 33 33 34 36 38 39
10 11 12 13 14 15 15 13 13 14 14 15 19 22 23 23 25 26 26 27 28 29 30 31 32 33 33 35 36 35 34 33 33 32 30 28 27 27 26 25 27 29 29 28 27 27 29 32 37 42 44 45 45 46 46 46 47 47 45 44 44 44 44 43 42 41 39 37 36 35 35 34 33 32 32 32 33 34 34 33 33 33 33 34 36 38 39
12 13 14 15 15 15 14 13 13 15 16 18 21 23 24 25 26 27 28 29 30 31 32 33 33 33 34 35 36 36 34 34 34 32 30 29 28 26 25 27 30 30 27 26 27 29 32 36 41 43 44 45 45 46 47 47 47 47 46 45 44 44 44 44 43 41 39 38 37 35 34 34 34 33 31 32 33 34 34 34 33 32 32 34 35 37 39
13 14 15 16 15 14 13 13 14 16 19 21 23 24 26 27 28 29 30 31 32 32 33 34 35 35 35 35 36 36 35 34 34 32 30 28 27 26 26 28 28 25 23 25 29 32 36 41 43 43 43 44 45 46 47 48 48 47 46 45 44 44 45 45 44 42 40 39 37 35 34 34 34 33 31 31 33 34 34 34 33 32 32 33 35 37 38
13 14 15 16 15 14 14 15 16 19 21 22 24 25 27 28 29 30 31 32 33 33 34 35 35 36 36 36 36 36 34 33 33 32 29 27 27 28 28 26 23 21 22 27 33 37 41 43 44 43 43 44 44 45 47 48 47 47 46 45 44 44 44 45 44 43 41 39 38 35 34 34 33 32 31 31 32 34 34 34 33 32 32 33 35 37 38
13 14 15 15 15 16 16 18 19 21 22 23 25 26 28 29 30 31 32 33 34 34 35 35 36 37 37 36 36 35 34 32 31 30 28 27 26 26 24 23 24 24 25 30 37 42 44 44 44 43 43 43 44 45 47 48 47 47 46 45 45 45 44 44 44 43 41 40 38 36 34 33 33 32 31 31 32 33 34 34 33 32 32 33 35 36 38
14 14 15 15 17 18 19 21 22 22 23 24 26 27 29 30 31 32 33 34 34 35 36 36 37 37 37 37 37 36 34 30 28 29 30 29 27 24 24 26 28 29 29 33 39 44 45 45 45 44 43 42 44 45 47 47 47 46 45 44 44 44 44 44 44 43 42 40 38 36 34 33 33 32 31 31 32 33 34 34 33 32 32 33 35 36 37
16 16 16 17 18 20 21 23 24 25 25 26 27 29 30 32 32 32 33 34 36 36 37 37 37 37 37 37 37 35 32 29 29 32 33 31 28 26 28 29 30 31 32 36 40 43 44 45 45 44 43 42 43 45 46 47 47 46 45 44 44 44 43 44 44 43 42 40 38 36 34 34 33 32 31 31 32 32 33 33 33 32 32 32 34 36 37
18 18 18 19 20 22 23 25 27 28 28 28 29 31 33 34 34 34 35 36 37 38 38 37 37 37 37 37 35 33 32 33 34 35 33 30 28 29 31 32 32 33 35 37 40 42 43 44 44 43 43 43 43 45 46 47 46 45 44 44 44 43 43 43 43 43 42 40 38 36 34 33 32 31 31 31 32 33 33 33 32 31 31 32 34 36 36
20 21 21 21 22 24 25 27 28 29 29 30 32 33 35 35 36 36 37 37 38 38 38 37 37 36 36 36 36 36 35 35 35 35 33 31 30 31 33 35 35 35 36 38 40 43 44 43 43 43 43 43 44 45 46 46 45 44 44 44 44 43 43 43 43 43 42 40 38 36 35 33 32 31 30 31 32 34 33 32 31 31 31 32 34 35 36
Wind_Direction
9 9 7 7 5 3 2 1 4 4 4 9 11 16 25 23 29 41 41 45 47 48 72 86 87 91 96 98 98 99 96 93 92 87 84 81 80 85 84 80 80 79 81 83 79 73 71 76 77 73 71 66 57 48 36 29 25 24 27 23 14 14 14 1 331 297 288 291 305 307 326 343 340 337 346 353 357 1 356 301 296 302 320 331 326 305 300
19 17 15 13 10 9 7 6 9 10 11 13 14 23 29 29 41 50 52 55 53 56 78 88 93 95 98 101 102 100 96 94 90 88 90 88 86 88 86 84 84 80 81 84 82 78 77 80 81 76 68 58 54 44 30 24 21 22 23 18 16 22 17 5 340 313 306 307 322 312 320 335 329 322 332 342 345 353 359 334 306 261 294 339 326 286 299
26 22 19 16 14 13 11 12 14 15 18 21 22 32 34 35 52 61 61 61 62 73 78 80 88 97 102 102 100 99 97 96 93 90 91 89 88 89 88 86 85 83 84 85 84 86 82 82 84 77 66 54 50 38 25 22 15 16 20 14 9 12 18 14 356 328 316 307 319 309 312 325 323 314 321 327 333 343 353 346 319 260 299 321 311 287 298
28 24 21 18 16 15 15 17 19 21 26 30 32 42 43 42 58 71 74 72 71 81 85 82 85 96 105 104 101 100 98 98 98 94 93 92 91 91 89 87 86 85 85 84 84 82 77 82 82 69 63 48 38 28 20 15 8 10 11 6 3 360 3 4 350 326 305 288 304 318 319 321 318 310 311 319 330 332 331 330 307 303 314 314 305 300 303
28 25 22 19 16 16 17 20 23 26 32 36 41 49 51 53 64 75 86 87 83 85 90 91 90 96 103 104 104 103 101 102 102 100 99 97 95 93 90 89 90 86 80 76 81 82 77 77 73 58 50 27 16 9 5 4 1 3 2 358 357 353 346 347 340 327 310 288 295 321 325 321 316 311 305 318 331 324 316 307 304 317 317 304 310 315 309
27 24 21 19 18 17 19 22 26 30 35 42 49 53 54 63 77 82 87 94 94 93 94 94 95 97 101 104 107 107 106 107 106 105 106 103 99 97 93 93 90 86 82 70 66 70 61 48 36 22 13 8 359 346 345 347 350 356 357 352 351 349 341 336 333 329 317 291 283 314 325 323 319 312 296 317 333 326 316 309 308 316 309 302 314 317 310
25 21 19 18 19 20 23 25 29 34 39 47 54 58 62 70 83 89 92 97 100 101 101 98 98 101 105 107 110 110 110 111 110 109 108 106 102 98 94 96 91 84 78 58 43 40 17 0 349 335 340 350 346 342 340 337 342 349 350 350 349 346 341 335 331 331 326 294 283 313 324 323 321 310 290 311 330 326 319 315 313 313 311 310 313 310 310
22 18 16 17 18 21 25 28 33 38 44 54 58 61 67 74 81 84 90 103 105 102 102 102 104 109 112 113 113 114 116 115 114 114 111 107 102 96 91 93 88 72 61 42 28 19 1 350 337 323 323 331 334 337 340 333 335 342 343 345 346 344 343 337 333 337 340 315 312 322 322 321 320 311 290 299 318 321 318 318 318 315 314 315 311 307 315
20 16 14 15 17 20 24 28 35 41 49 58 62 64 68 75 85 85 81 99 107 104 104 107 111 114 116 117 118 120 121 119 117 116 114 108 101 95 85 70 53 33 33 16 353 347 343 338 333 322 317 318 318 324 333 330 325 329 337 341 340 339 340 338 336 341 341 325 325 325 316 312 311 302 293 300 310 315 315 315 318 317 315 314 309 309 316
18 14 13 14 16 18 21 26 35 45 56 62 63 68 73 74 88 94 87 95 106 107 110 115 118 120 120 122 124 125 125 123 120 118 116 112 104 94 73 41 16 0 355 343 327 324 322 321 323 321 317 314 309 309 318 324 322 321 327 336 339 338 338 339 338 334 329 330 330 320 310 306 300 299 311 313 306 307 310 312 316 318 315 311 309 313 319
17 14 13 14 14 16 20 25 38 50 60 67 67 72 79 76 89 98 93 102 112 111 114 120 122 125 126 128 131 129 127 125 123 119 117 111 94 67 32 8 355 345 337 331 323 318 315 313 312 311 312 313 312 307 305 312 321 322 322 329 337 338 335 336 335 323 323 336 337 320 303 289 298 314 317 308 298 300 306 311 316 320 319 314 313 318 321
15 13 12 13 13 15 19 25 42 56 62 68 71 75 79 81 97 98 90 105 120 117 122 128 128 130 132 134 136 133 131 130 127 120 113 94 47 10 356 342 333 330 326 325 325 320 316 313 309 306 307 310 313 312 305 302 310 319 321 322 330 336 333 333 332 319 319 333 339 328 288 288 308 314 308 300 302 308 312 316 321 326 326 320 317 319 322
14 12 11 11 11 14 20 28 46 61 63 66 74 83 84 86 103 103 96 110 125 123 130 137 135 137 140 139 140 141 137 137 131 117 94 20 347 336 334 329 324 324 321 319 321 320 318 316 310 307 306 306 309 314 314 308 306 315 321 319 324 333 333 331 329 317 314 327 331 306 300 307 307 305 302 307 316 321 319 319 324 330 327 319 316 320 322
13 11 9 10 11 14 23 32 48 61 62 65 81 90 91 92 102 107 109 121 129 129 135 141 140 143 146 143 145 149 145 144 140 102 331 323 326 321 319 320 320 322 322 320 319 318 317 317 317 319 318 313 312 316 321 319 312 314 321 319 321 330 331 328 326 316 313 320 313 302 305 305 300 300 309 316 321 323 321 318 324 331 328 319 321 323 323
12 10 8 10 12 16 25 36 50 60 62 65 84 93 98 101 104 112 119 124 129 133 137 143 146 146 150 152 153 157 161 168 228 302 307 312 317 315 315 317 317 318 319 319 318 317 318 320 324 326 322 313 309 311 316 318 314 315 320 319 317 323 326 323 317 309 310 314 312 310 309 297 297 307 315 317 318 321 319 316 321 332 333 325 325 324 321
11 9 8 11 16 20 28 41 52 61 63 66 88 101 105 105 109 123 129 125 132 143 142 146 153 153 157 164 166 181 210 244 283 297 307 312 313 315 316 318 318 317 317 316 317 318 319 319 321 320 312 306 304 304 308 312 310 311 316 315 312 315 319 318 312 306 304 299 296 297 280 282 303 312 313 313 314 319 320 317 320 331 332 325 323 322 321
11 10 10 13 20 25 33 43 52 61 63 66 95 106 105 105 113 132 137 129 135 151 149 150 160 163 169 183 200 237 263 282 296 304 312 313 314 317 318 318 318 317 317 317 317 317 316 315 317 313 307 306 305 303 305 306 304 307 312 313 311 312 315 316 312 306 300 288 281 282 281 291 304 310 310 311 315 320 321 316 320 327 326 322 321 321 321
12 12 12 16 24 32 40 47 53 59 60 62 94 105 105 110 117 129 141 136 138 152 157 159 171 183 198 223 254 278 292 301 307 312 316 316 319 320 320 320 320 319 319 319 318 317 316 315 316 312 306 306 306 302 302 301 301 306 311 312 309 308 309 309 306 305 300 285 276 280 290 299 305 307 310 314 318 319 316 311 317 322 321 319 319 319 318
16 16 16 19 26 34 43 50 55 60 60 58 81 100 104 113 117 121 141 145 141 149 163 178 199 221 244 267 289 298 305 310 312 315 318 319 321 321 320 321 321 319 320 319 317 318 316 314 316 312 306 306 305 298 299 301 301 305 310 311 308 304 303 305 305 304 300 290 283 284 294 308 316 315 314 316 316 314 312 314 318 319 317 317 318 317 317
21 21 22 26 31 37 43 49 52 57 58 54 66 89 98 107 114 117 136 166 145 141 161 225 252 274 288 302 310 309 311 315 316 319 322 322 322 321 320 321 321 319 319 318 319 320 315 313 315 311 306 307 303 298 300 302 302 305 308 307 304 301 298 300 304 303 298 292 287 287 299 313 317 314 312 313 314 313 315 317 319 319 317 317 318 317 317
28 28 30 34 38 42 48 53 55 57 59 60 68 81 85 89 100 101 92 29 145 112 61 294 302 315 319 319 319 316 316 319 320 322 323 322 323 321 320 321 322 319 317 317 318 317 312 310 311 308 306 307 303 301 303 302 301 305 307 303 301 299 295 295 300 301 296 286 288 300 309 310 310 309 310 313 315 317 318 320 321 320 319 318 317 317 317
35 36 39 42 44 47 53 58 60 61 64 68 70 70 70 68 72 74 61 29 352 4 9 350 334 333 331 328 327 326 326 326 326 326 325 323 324 321 319 321 320 316 315 314 313 311 309 309 308 306 306 306 302 302 303 300 299 304 305 301 298 299 300 300 298 296 293 292 299 310 315 310 308 310 314 316 318 319 319 320 320 319 318 318 318 318 318
41 43 47 50 51 54 57 61 63 63 63 64 64 62 59 55 55 53 42 19 5 10 11 359 347 344 343 338 336 335 335 333 331 329 327 325 324 321 319 320 318 315 314 311 309 308 307 307 307 305 305 306 304 302 302 300 299 302 304 301 299 302 304 302 299 298 297 300 309 317 318 315 314 315 317 319 320 321 320 320 320 320 320 320 320 319 319
47 49 52 56 57 59 61 63 65 64 63 63 63 62 60 57 55 52 44 34 24 17 11 4 358 354 349 345 342 340 338 336 333 330 328 326 324 322 320 319 316 314 313 310 309 307 306 305 305 304 304 305 304 301 301 300 301 302 303 302 302 304 305 302 301 300 297 303 315 320 316 317 320 318 317 319 321 321 322 322 322 322 322 322 322 321 320
50 51 55 59 61 62 63 65 66 66 66 66 66 65 64 61 57 53 49 47 38 29 23 18 12 5 359 354 350 346 342 338 335 333 331 328 325 323 321 319 317 315 313 311 309 307 305 305 304 303 303 305 304 302 300 299 299 300 301 301 302 303 302 302 304 301 298 306 317 317 313 317 321 319 317 319 320 321 322 323 323 324 324 324 323 322 320
51 53 55 59 62 63 64 65 66 67 67 66 66 65 63 60 57 53 51 50 47 39 34 32 27 20 15 10 3 356 353 350 346 342 338 334 330 326 323 320 318 316 314 312 309 308 306 305 304 304 304 305 305 303 301 300 300 298 300 304 307 303 300 302 304 302 303 312 319 316 313 318 321 319 318 319 319 320 321 322 323 324 324 324 324 323 322
51 52 55 57 61 63 63 63 64 65 65 63 63 62 61 58 56 54 51 49 48 43 39 39 36 30 24 18 12 8 6 3 358 354 349 344 340 335 331 327 323 320 317 314 312 311 309 308 308 308 306 305 305 304 303 304 302 300 304 313 315 307 303 304 301 299 306 317 319 314 313 316 318 318 317 317 318 319 319 320 321 322 324 324 324 324 324
49 50 53 56 58 60 62 61 60 60 61 61 59 58 58 56 54 52 50 48 46 44 41 38 36 31 25 19 14 11 9 6 2 359 357 353 349 345 342 337 332 328 324 320 318 317 315 314 315 313 309 309 308 306 308 308 305 308 318 325 318 305 301 299 295 299 310 319 318 313 311 313 315 315 315 315 317 318 318 319 321 322 323 324 324 323 324
47 47 49 52 55 57 58 59 57 56 57 58 56 55 54 53 51 49 48 45 43 41 39 35 32 28 23 18 13 10 7 4 0 359 358 356 353 350 348 345 339 335 333 328 326 325 322 321 323 319 316 315 310 308 312 312 311 320 333 329 310 299 293 290 295 306 314 319 318 315 313 313 314 314 313 315 317 318 318 319 321 323 324 324 324 324 324
43 42 44 48 52 54 55 55 55 53 52 54 54 52 51 50 48 46 44 42 39 38 36 33 29 24 20 17 13 9 6 2 359 358 356 356 354 350 348 347 343 339 337 334 332 332 329 326 328 327 323 319 312 310 314 315 316 327 338 324 305 302 295 291 302 312 316 319 320 318 316 317 315 313 313 315 317 317 317 319 321 323 324 325 325 324 324
37 36 38 42 47 51 51 51 51 50 48 49 49 48 47 46 44 41 40 38 35 33 32 29 26 22 17 14 11 7 4 2 359 357 354 354 354 351 347 346 344 340 338 337 335 336 333 330 330 331 330 324 316 314 318 319 321 328 334 324 312 308 300 299 309 315 317 320 319 317 318 319 315 312 313 315 317 317 318 319 321 323 325 326 326 325 325
29 28 31 34 41 45 46 45 44 44 43 42 42 42 41 41 39 36 35 33 30 29 27 25 24 21 15 10 8 5 3 1 359 356 353 351 352 350 346 345 343 341 339 338 336 336 336 333 331 333 333 328 320 320 324 327 326 328 329 325 318 311 305 307 314 317 319 320 318 317 319 320 316 313 314 316 317 319 320 321 322 324 327 328 327 326 325
20 17 19 26 31 34 36 36 35 35 35 34 34 35 34 33 32 31 29 28 25 23 21 20 20 18 12 8 5 3 1 360 357 355 353 350 350 349 347 345 344 341 339 338 336 335 336 334 333 335 335 330 323 323 328 333 333 330 328 325 320 314 311 313 316 317 319 319 317 317 318 319 317 314 314 315 317 318 320 320 322 324 327 329 328 327 326
22 13 13 18 22 20 21 23 23 24 24 23 24 25 25 24 24 23 22 22 20 18 16 15 14 12 8 6 4 1 359 357 355 354 353 351 348 347 346 346 345 342 339 338 336 335 334 333 333 335 336 332 326 324 328 335 339 337 331 327 322 317 315 316 316 318 319 318 317 317 318 318 317 314 313 314 315 317 319 319 320 323 326 328 328 327 327
25 18 12 13 14 13 12 11 11 13 13 11 12 14 14 14 14 13 13 13 13 12 11 9 7 6 3 2 1 359 356 355 353 351 350 348 347 345 343 344 343 341 339 339 336 334 334 334 334 335 336 332 328 327 330 335 340 341 337 331 324 320 319 318 318 319 319 318 317 317 318 318 317 314 313 313 315 317 319 319 320 322 326 328 329 328 329
26 23 19 17 15 13 11 8 6 6 6 4 3 3 4 5 5 5 5 5 4 4 4 3 2 0 358 357 356 354 353 352 351 349 347 345 345 343 341 341 341 340 340 340 336 333 335 335 333 336 337 333 330 332 333 336 340 342 340 335 326 321 320 319 318 319 320 319 318 318 318 318 317 315 313 313 315 318 319 319 320 322 326 329 330 329 329
28 22 18 17 16 14 12 9 5 4 4 2 359 358 358 359 359 358 358 358 357 357 357 358 357 355 354 352 350 348 348 348 347 347 346 343 342 342 340 340 339 338 338 339 336 333 336 334 332 336 339 336 334 337 338 338 339 341 341 338 330 323 320 319 318 319 319 318 318 318 318 318 318 316 313 313 315 317 318 319 319 322 325 328 330 330 330
26 20 14 12 9 8 7 6 3 1 1 360 358 357 358 357 356 357 356 354 353 353 352 352 351 349 348 348 346 344 344 344 343 343 343 341 340 339 339 338 337 335 335 336 334 333 335 334 332 336 341 339 338 340 340 339 339 340 339 338 334 328 322 319 318 318 318 318 318 318 318 319 319 317 314 314 316 318 319 319 319 321 325 327 329 330 330
14 9 5 3 1 359 358 357 356 356 355 355 356 357 356 355 355 356 355 353 352 351 349 349 348 345 343 343 343 342 341 340 339 339 340 339 337 337 336 335 333 331 331 331 331 332 333 332 331 336 341 341 340 341 341 340 339 339 338 337 336 332 327 323 321 319 318 317 318 318 318 319 319 318 316 316 317 319 320 320 320 321 324 327 328 329 330
5 359 355 353 352 351 350 348 348 348 348 348 350 351 352 351 351 351 351 350 351 350 347 346 345 344 341 341 340 339 338 337 336 336 336 336 334 333 333 332 330 327 327 328 329 330 330 329 330 335 340 340 340 341 341 339 338 338 337 336 336 334 331 327 324 322 320 319 318 319 318 319 319 317 315 315 317 319 320 320 320 321 323 326 328 329 329
356 352 349 345 343 343 343 341 341 342 343 344 346 347 348 347 347 346 345 345 345 344 342 341 341 342 341 340 339 338 337 335 334 333 333 333 332 330 330 331 328 324 323 326 328 327 326 326 330 335 339 339 339 340 340 338 337 336 336 335 335 334 332 329 327 326 324 321 320 319 318 319 319 317 315 315 317 319 320 320 320 321 323 325 327 328 329
342 341 340 340 337 336 337 336 335 338 340 342 344 346 346 345 344 343 342 340 338 337 337 336 336 338 338 337 337 337 336 334 332 331 331 330 329 327 328 328 325 320 321 324 325 324 323 324 329 335 338 338 339 339 339 337 335 335 334 334 334 333 331 330 329 328 326 323 321 319 318 319 319 317 314 315 317 319 320 320 320 321 323 325 327 328 329
332 332 333 334 334 333 333 332 333 336 339 340 341 341 341 340 339 339 338 336 334 333 333 333 332 332 333 332 333 334 333 332 332 330 328 327 326 324 324 324 321 320 322 323 322 322 323 325 330 335 337 337 338 338 337 335 334 333 333 333 333 332 331 330 330 329 328 325 322 320 318 319 319 317 315 315 317 318 319 319 320 321 323 325 327 328 329
324 325 327 329 330 330 330 331 332 334 337 338 337 336 335 335 335 334 333 332 331 331 331 331 330 330 330 329 329 330 331 331 329 327 324 323 322 320 319 318 318 320 321 321 320 322 326 329 333 335 335 336 337 336 335 333 333 332 332 332 332 331 330 330 330 330 329 326 323 320 319 319 318 317 315 315 317 318 319 319 320 321 323 325 326 327 328
321 322 324 326 328 329 330 332 333 333 334 334 333 331 329 330 331 330 329 328 328 328 329 329 328 328 328 327 326 327 328 327 326 325 323 320 318 315 314 316 317 317 317 318 320 323 327 332 334 335 334 335 336 334 333 332 332 332 332 332 331 330 330 330 330 330 329 326 324 322 320 319 318 316 315 316 317 319 319 320 320 321 323 324 326 327 328
322 323 325 328 330 332 335 334 332 331 331 331 328 327 326 327 329 329 328 327 327 326 326 326 326 326 326 325 323 324 324 324 323 322 320 317 314 312 313 314 314 313 313 315 320 325 329 332 334 334 333 333 333 332 331 331 331 331 332 331 330 330 330 330 330 330 329 326 325 323 321 320 318 316 316 316 318 318 319 320 320 321 322 324 326 327 328
324 326 329 330 331 332 334 333 329 329 330 328 326 326 326 327 329 328 327 326 326 325 324 324 323 323 323 322 321 321 323 322 319 318 318 316 312 311 310 309 308 309 312 316 322 328 331 332 332 332 332 331 331 331 330 330 331 331 331 330 329 329 329 329 330 330 328 327 325 323 321 320 319 317 316 317 318 318 319 320 320 321 322 324 327 328 328
323 325 327 328 328 328 329 327 326 328 329 327 325 325 326 326 327 327 325 325 325 324 323 323 322 321 321 321 320 320 321 320 317 316 317 315 311 309 307 303 303 309 315 320 324 328 330 331 331 331 331 330 330 329 329 330 331 331 331 329 329 329 329 329 329 329 328 327 325 323 321 320 319 317 316 317 318 319 319 319 320 321 322 324 327 328 329
316 319 322 323 323 324 324 322 322 325 327 325 323 324 325 325 325 325 323 323 324 323 322 322 321 320 320 320 319 318 319 318 315 313 314 313 309 305 299 298 303 312 319 322 324 327 329 330 330 330 330 329 328 328 329 330 331 331 330 329 328 329 329 329 328 328 328 327 325 323 321 320 319 317 316 317 318 319 319 319 320 321 322 324 326 328 329
309 312 316 318 319 320 320 318 319 322 324 322 321 322 322 322 322 322 321 321 322 322 321 321 320 319 319 319 317 317 317 316 313 311 311 311 308 302 298 301 308 315 318 320 323 326 328 328 329 329 329 328 327 328 329 330 331 331 330 329 328 328 328 328 328 328 328 327 325 323 321 320 320 318 317 317 318 319 320 319 320 321 322 324 326 328 330
304 308 311 314 316 317 317 317 318 320 321 321 320 320 320 320 320 320 319 320 320 320 320 320 319 319 319 317 315 314 314 314 312 310 312 313 309 304 304 308 313 314 314 318 322 325 326 327 328 329 328 327 327 328 329 330 331 331 330 329 329 329 328 328 328 327 327 327 325 323 321 321 320 318 317 318 319 319 320 320 320 321 322 323 325 328 330
303 306 308 311 313 314 314 315 317 318 318 319 319 318 318 318 318 318 318 318 318 318 318 318 318 318 317 315 312 313 313 312 310 311 314 316 313 309 309 311 312 311 313 318 322 323 324 327 329 329 327 326 328 329 330 330 331 331 330 329 329 329 329 328 328 327 327 327 326 323 322 321 320 319 318 319 319 319 320 321 321 321 322 323 325 328 331
Height
3144 3142 3141 3139 3137 3136 3135 3133 3132 3131 3130 3129 3128 3127 3126 3126 3125 3125 3124 3123 3123 3122 3122 3123 3123 3122 3123 3124 3125 3126 3126 3126 3127 3127 3127 3127 3127 3126 3126 3126 3126 3125 3125 3125 3124 3124 3123 3123 3122 3121 3121 3120 3120 3119 3118 3117 3116 3115 3113 3112 3111 3110 3108 3107 3105 3103 3102 3101 3100 3099 3098 3096 3094 3093 3093 3092 3091 3090 3089 3088 3087 3086 3084 3082 3082 3078 3073
3144 3143 3141 3139 3138 3136 3135 3133 3132 3131 3130 3129 3128 3127 3127 3126 3126 3125 3125 3124 3124 3124 3124 3124 3124 3124 3124 3125 3126 3127 3127 3127 3128 3128 3127 3127 3127 3127 3127 3127 3126 3126 3125 3125 3124 3124 3123 3123 3122 3122 3121 3120 3120 3119 3118 3117 3116 3114 3113 3112 3111 3110 3108 3107 3105 3104 3102 3100 3100 3099 3098 3096 3094 3092 3092 3091 3090 3089 3088 3087 3086 3085 3083 3082 3081 3077 3072
3145 3143 3141 3140 3138 3136 3135 3134 3132 3131 3130 3129 3129 3128 3127 3127 3126 3126 3126 3125 3125 3125 3125 3125 3125 3125 3126 3127 3127 3128 3128 3128 3128 3128 3128 3128 3128 3128 3127 3127 3127 3126 3126 3125 3125 3124 3124 3123 3123 3122 3121 3121 3120 3119 3118 3117 3116 3114 3113 3112 3111 3110 3109 3107 3106 3105 3104 3102 3101 3099 3097 3096 3094 3092 3090 3090 3089 3088 3087 3086 3085 3084 3081 3080 3079 3074 3070
3145 3144 3142 3140 3138 3137 3136 3134 3133 3132 3131 3130 3129 3128 3128 3128 3127 3127 3127 3127 3127 3126 3126 3127 3127 3126 3127 3127 3128 3129 3129 3129 3129 3129 3129 3129 3129 3129 3128 3128 3128 3127 3127 3126 3125 3125 3124 3123 3123 3122 3122 3121 3120 3119 3118 3117 3116 3115 3113 3112 3111 3109 3108 3107 3107 3106 3104 3103 3101 3099 3097 3096 3094 3092 3090 3089 3088 3087 3086 3085 3084 3083 3079 3077 3077 3074 3069
3146 3144 3143 3141 3139 3138 3136 3135 3133 3132 3131 3131 3130 3129 3129 3128 3128 3128 3128 3128 3128 3128 3128 3128 3128 3128 3128 3128 3129 3129 3130 3130 3130 3130 3130 3130 3130 3129 3129 3129 3128 3128 3127 3126 3126 3125 3125 3124 3123 3123 3122 3121 3120 3119 3118 3117 3116 3115 3113 3112 3111 3109 3108 3107 3106 3105 3103 3102 3100 3099 3097 3094 3092 3091 3089 3088 3087 3086 3085 3084 3083 3082 3079 3074 3072 3072 3067
3147 3145 3144 3142 3140 3138 3137 3135 3134 3133 3132 3131 3130 3130 3129 3129 3129 3129 3129 3129 3129 3129 3129 3129 3129 3129 3130 3129 3130 3130 3131 3131 3131 3131 3131 3130 3130 3130 3129 3129 3129 3128 3128 3127 3126 3126 3125 3124 3124 3123 3122 3121 3120 3119 3118 3117 3116 3114 3113 3112 3110 3109 3107 3106 3105 3103 3102 3100 3099 3097 3095 3093 3090 3089 3088 3087 3086 3085 3084 3082 3081 3079 3077 3072 3069 3067 3064
3148 3147 3145 3143 3141 3139 3137 3136 3134 3133 3133 3132 3131 3130 3130 3130 3130 3130 3130 3130 3130 3130 3130 3130 3130 3131 3131 3131 3131 3131 3132 3132 3132 3132 3132 3131 3131 3130 3130 3130 3129 3129 3128 3127 3127 3126 3125 3125 3124 3123 3122 3121 3120 3119 3118 3117 3115 3114 3113 3111 3110 3108 3107 3105 3104 3102 3100 3098 3097 3096 3093 3091 3089 3087 3087 3085 3084 3083 3082 3080 3079 3077 3074 3070 3067 3064 3061
3149 3147 3145 3143 3141 3139 3137 3136 3135 3134 3133 3132 3132 3131 3131 3131 3131 3130 3131 3131 3131 3131 3131 3131 3132 3132 3132 3132 3132 3132 3133 3133 3133 3132 3132 3132 3131 3131 3131 3130 3130 3129 3128 3128 3127 3126 3126 3125 3124 3123 3122 3121 3120 3119 3117 3116 3115 3114 3112 3111 3110 3108 3106 3105 3102 3100 3098 3097 3096 3094 3091 3089 3087 3086 3085 3084 3083 3081 3079 3078 3076 3073 3070 3068 3065 3061 3058
3150 3148 3146 3144 3141 3139 3138 3137 3135 3135 3134 3133 3132 3132 3132 3132 3131 3131 3132 3132 3131 3132 3132 3132 3133 3133 3133 3133 3133 3134 3134 3134 3134 3133 3133 3133 3132 3132 3131 3131 3130 3130 3129 3128 3127 3127 3126 3125 3124 3123 3122 3121 3120 3118 3117 3116 3115 3114 3112 3111 3109 3107 3106 3104 3102 3099 3097 3096 3095 3092 3089 3087 3085 3084 3083 3082 3081 3079 3078 3076 3074 3072 3068 3065 3062 3059 3056
3151 3149 3146 3144 3142 3140 3138 3137 3136 3135 3134 3134 3133 3133 3133 3132 3132 3132 3133 3133 3133 3133 3133 3134 3134 3134 3134 3135 3135 3135 3135 3134 3134 3134 3134 3133 3133 3133 3132 3131 3131 3130 3129 3128 3128 3127 3126 3125 3124 3123 3122 3121 3119 3118 3117 3116 3114 3113 3112 3110 3108 3107 3105 3103 3101 3098 3096 3096 3094 3092 3089 3086 3083 3082 3081 3080 3078 3077 3076 3074 3072 3070 3067 3063 3059 3056 3054
3151 3149 3147 3144 3142 3140 3139 3137 3136 3136 3135 3134 3134 3134 3134 3133 3133 3133 3133 3134 3134 3134 3135 3135 3135 3135 3135 3136 3136 3136 3136 3135 3135 3135 3134 3134 3134 3133 3133 3132 3131 3131 3130 3129 3128 3127 3126 3125 3124 3123 3122 3120 3119 3118 3116 3115 3114 3112 3111 3109 3107 3106 3104 3102 3100 3098 3095 3094 3092 3090 3088 3085 3082 3080 3079 3078 3077 3075 3073 3071 3069 3068 3065 3061 3056 3053 3051
3152 3149 3147 3145 3143 3141 3139 3138 3137 3136 3135 3135 3135 3135 3134 3134 3135 3134 3134 3135 3135 3135 3136 3136 3136 3137 3137 3137 3137 3137 3136 3136 3136 3136 3135 3135 3134 3134 3133 3133 3132 3131 3130 3129 3128 3127 3126 3125 3124 3122 3121 3120 3118 3117 3115 3114 3113 3111 3110 3108 3106 3105 3103 3101 3099 3097 3094 3092 3091 3089 3086 3083 3080 3079 3078 3076 3075 3073 3070 3067 3065 3063 3060 3056 3053 3051 3049
3152 3150 3147 3145 3143 3141 3140 3138 3137 3137 3136 3136 3136 3136 3135 3136 3135 3135 3135 3136 3136 3136 3137 3137 3137 3138 3138 3138 3138 3138 3137 3137 3137 3136 3136 3135 3135 3134 3134 3133 3132 3131 3130 3129 3128 3127 3126 3125 3123 3122 3120 3119 3117 3116 3114 3113 3112 3110 3108 3107 3105 3104 3102 3099 3098 3096 3093 3091 3091 3089 3084 3079 3078 3077 3076 3074 3072 3070 3066 3061 3059 3059 3056 3052 3050 3048 3046
3152 3150 3148 3146 3144 3142 3140 3139 3138 3137 3137 3137 3137 3136 3136 3137 3137 3136 3136 3137 3138 3137 3138 3138 3138 3139 3139 3139 3139 3138 3138 3138 3137 3137 3137 3136 3135 3135 3134 3133 3132 3131 3130 3129 3128 3127 3125 3124 3122 3121 3119 3117 3116 3114 3113 3111 3110 3109 3107 3106 3104 3102 3100 3098 3097 3094 3092 3091 3089 3086 3081 3077 3075 3074 3073 3072 3070 3067 3063 3057 3054 3054 3053 3050 3048 3045 3042
3153 3151 3149 3146 3144 3142 3141 3139 3138 3138 3138 3138 3138 3137 3137 3138 3138 3138 3138 3138 3139 3139 3139 3140 3140 3140 3140 3140 3139 3139 3139 3138 3138 3138 3137 3136 3136 3135 3134 3133 3132 3131 3130 3129 3128 3126 3125 3123 3122 3120 3118 3116 3115 3113 3111 3110 3108 3107 3106 3105 3103 3102 3100 3098 3096 3094 3092 3090 3087 3083 3080 3075 3073 3072 3071 3070 3067 3065 3062 3055 3050 3049 3049 3046 3044 3041 3038
3154 3151 3149 3147 3145 3143 3141 3140 3139 3139 3139 3139 3139 3138 3139 3139 3139 3140 3139 3139 3140 3141 3141 3141 3141 3141 3141 3141 3140 3140 3140 3139 3139 3138 3137 3137 3136 3135 3134 3133 3132 3131 3130 3129 3127 3126 3124 3123 3121 3119 3117 3116 3114 3112 3110 3109 3107 3105 3105 3103 3102 3101 3099 3097 3096 3093 3091 3090 3087 3084 3080 3074 3071 3071 3070 3068 3066 3063 3060 3053 3046 3045 3045 3042 3040 3038 3035
3155 3152 3150 3148 3146 3144 3142 3141 3141 3140 3140 3140 3140 3140 3140 3140 3140 3141 3141 3140 3141 3142 3142 3142 3142 3142 3142 3142 3141 3141 3140 3140 3139 3138 3138 3137 3136 3135 3134 3133 3132 3131 3130 3128 3127 3125 3124 3122 3120 3119 3116 3115 3113 3111 3109 3108 3106 3104 3103 3101 3100 3099 3097 3095 3093 3091 3090 3088 3086 3083 3079 3073 3070 3070 3068 3066 3064 3061 3058 3052 3045 3043 3042 3039 3036 3034 3031
3155 3153 3151 3148 3147 3145 3144 3142 3142 3141 3141 3142 3141 3141 3141 3141 3141 3142 3142 3142 3142 3143 3143 3143 3143 3143 3143 3143 3142 3142 3141 3140 3139 3139 3138 3137 3136 3135 3134 3133 3132 3130 3129 3127 3126 3124 3122 3121 3119 3117 3115 3114 3112 3110 3108 3106 3104 3103 3102 3100 3098 3096 3095 3093 3091 3089 3088 3086 3083 3080 3076 3072 3070 3069 3067 3064 3061 3058 3056 3052 3046 3042 3040 3037 3034 3031 3028
3156 3154 3152 3149 3147 3146 3145 3144 3143 3143 3143 3143 3143 3142 3142 3142 3143 3143 3143 3144 3143 3143 3144 3144 3144 3144 3144 3143 3142 3142 3141 3140 3140 3139 3138 3137 3136 3135 3133 3132 3131 3130 3128 3127 3125 3123 3121 3119 3118 3117 3114 3112 3111 3109 3107 3105 3104 3101 3100 3098 3096 3095 3093 3091 3089 3087 3085 3083 3081 3076 3072 3069 3068 3066 3064 3062 3059 3056 3053 3049 3045 3042 3039 3035 3032 3029 3026
3158 3155 3153 3151 3149 3147 3146 3145 3145 3144 3144 3144 3144 3143 3143 3144 3144 3144 3145 3145 3144 3144 3145 3145 3145 3145 3144 3143 3143 3142 3142 3141 3140 3139 3138 3136 3135 3134 3133 3132 3130 3129 3127 3125 3124 3122 3120 3118 3117 3116 3113 3111 3109 3107 3105 3103 3102 3100 3099 3097 3095 3093 3091 3088 3087 3085 3083 3081 3079 3075 3070 3067 3066 3064 3062 3059 3057 3053 3049 3046 3043 3040 3036 3033 3030 3027 3023
3159 3157 3155 3153 3151 3149 3148 3147 3147 3146 3146 3146 3146 3145 3145 3145 3145 3145 3146 3146 3146 3146 3146 3145 3145 3145 3144 3144 3143 3142 3142 3141 3139 3138 3137 3136 3135 3133 3132 3131 3129 3128 3126 3124 3123 3121 3119 3117 3116 3114 3112 3110 3108 3106 3104 3101 3099 3098 3097 3095 3093 3091 3089 3087 3085 3084 3082 3079 3076 3073 3069 3065 3063 3062 3060 3057 3054 3050 3046 3043 3040 3037 3033 3030 3027 3024 3021
3161 3160 3158 3155 3153 3152 3150 3149 3148 3148 3148 3148 3147 3146 3146 3146 3146 3146 3147 3147 3147 3147 3146 3146 3146 3145 3145 3144 3143 3142 3141 3140 3139 3138 3137 3135 3134 3133 3131 3130 3128 3127 3125 3123 3122 3120 3119 3117 3115 3112 3111 3109 3106 3104 3102 3099 3096 3095 3095 3093 3091 3088 3087 3085 3083 3081 3079 3076 3072 3070 3068 3065 3061 3058 3056 3054 3051 3047 3044 3040 3037 3034 3031 3027 3024 3021 3017
3164 3162 3160 3158 3156 3154 3153 3151 3150 3150 3149 3149 3148 3147 3147 3147 3147 3147 3147 3148 3147 3147 3146 3146 3146 3145 3144 3144 3143 3142 3141 3140 3138 3137 3136 3134 3133 3132 3130 3129 3128 3126 3124 3123 3121 3119 3117 3115 3113 3111 3109 3107 3105 3102 3100 3097 3094 3092 3091 3090 3088 3086 3084 3082 3079 3077 3075 3071 3069 3067 3065 3062 3059 3055 3052 3050 3047 3044 3041 3038 3035 3032 3028 3024 3021 3017 3014
3166 3164 3163 3161 3159 3157 3156 3154 3153 3152 3151 3150 3149 3149 3149 3148 3148 3148 3148 3148 3147 3147 3146 3146 3145 3145 3144 3143 3143 3141 3140 3139 3138 3136 3135 3133 3132 3131 3129 3128 3126 3125 3123 3121 3120 3118 3116 3114 3112 3109 3107 3105 3103 3100 3098 3095 3092 3090 3088 3086 3083 3082 3081 3079 3076 3074 3070 3066 3065 3064 3061 3058 3056 3052 3049 3046 3043 3040 3038 3035 3031 3028 3024 3021 3018 3014 3010
3168 3166 3165 3163 3162 3160 3159 3157 3155 3154 3153 3152 3151 3151 3150 3150 3149 3149 3148 3148 3147 3147 3146 3146 3145 3145 3144 3143 3142 3141 3140 3138 3137 3135 3134 3132 3131 3129 3128 3126 3124 3123 3121 3120 3118 3116 3114 3112 3110 3108 3105 3103 3101 3098 3096 3094 3091 3088 3085 3083 3081 3079 3077 3074 3072 3070 3066 3062 3061 3060 3057 3054 3052 3049 3046 3043 3040 3037 3034 3031 3027 3024 3021 3017 3014 3011 3007
3169 3168 3167 3166 3164 3163 3161 3160 3158 3157 3156 3155 3153 3153 3152 3151 3150 3150 3149 3149 3148 3147 3147 3146 3145 3145 3144 3143 3142 3141 3139 3138 3136 3134 3133 3131 3129 3128 3126 3124 3123 3121 3119 3118 3116 3114 3112 3110 3108 3106 3103 3101 3098 3095 3093 3092 3089 3086 3082 3080 3079 3077 3074 3072 3069 3065 3062 3059 3058 3055 3052 3050 3048 3046 3042 3040 3037 3034 3030 3027 3024 3020 3017 3014 3010 3007 3003
3171 3170 3169 3167 3166 3165 3163 3162 3161 3159 3158 3157 3155 3155 3154 3153 3152 3151 3151 3149 3148 3148 3147 3147 3146 3145 3144 3143 3142 3140 3139 3137 3135 3134 3132 3130 3128 3126 3124 3123 3121 3119 3117 3115 3113 3111 3109 3107 3105 3103 3101 3099 3096 3092 3090 3088 3086 3083 3079 3078 3077 3074 3071 3070 3066 3062 3059 3058 3056 3052 3048 3046 3045 3043 3040 3037 3034 3031 3028 3024 3021 3018 3014 3010 3007 3003 3000
3172 3171 3170 3169 3168 3166 3165 3164 3163 3161 3160 3158 3157 3156 3155 3154 3154 3153 3152 3151 3150 3149 3148 3147 3146 3145 3144 3143 3142 3140 3138 3137 3135 3133 3131 3129 3127 3125 3123 3121 3119 3117 3115 3113 3111 3109 3107 3105 3103 3101 3098 3096 3093 3089 3087 3085 3082 3079 3077 3076 3074 3071 3068 3066 3064 3060 3057 3056 3054 3051 3047 3044 3041 3039 3037 3034 3032 3029 3025 3022 3018 3015 3011 3008 3004 3000 2996
3173 3172 3171 3170 3169 3168 3167 3165 3164 3163 3162 3160 3159 3158 3157 3156 3155 3154 3153 3152 3151 3150 3149 3147 3146 3145 3144 3143 3141 3140 3138 3136 3134 3133 3131 3128 3126 3124 3122 3120 3117 3115 3113 3111 3109 3107 3105 3103 3101 3099 3096 3094 3090 3086 3083 3081 3078 3075 3074 3072 3069 3067 3065 3063 3061 3058 3055 3053 3051 3048 3045 3042 3039 3036 3034 3031 3028 3025 3022 3019 3015 3012 3008 3005 3001 2997 2993
3174 3173 3173 3172 3171 3169 3168 3167 3166 3165 3164 3162 3161 3160 3159 3157 3156 3155 3154 3153 3152 3150 3149 3148 3147 3145 3144 3143 3141 3139 3138 3136 3134 3132 3129 3127 3125 3123 3120 3118 3116 3114 3112 3109 3107 3105 3103 3100 3099 3097 3094 3092 3088 3084 3081 3078 3074 3072 3071 3069 3065 3063 3062 3061 3059 3056 3052 3050 3048 3045 3042 3039 3036 3033 3030 3028 3025 3022 3019 3016 3013 3009 3005 3001 2998 2994 2990
3174 3174 3173 3173 3171 3170 3169 3168 3167 3166 3165 3164 3162 3161 3160 3158 3157 3156 3155 3153 3152 3151 3150 3148 3147 3145 3144 3142 3141 3139 3137 3135 3133 3131 3128 3126 3124 3122 3119 3117 3115 3112 3110 3108 3105 3103 3101 3099 3096 3095 3093 3090 3087 3083 3080 3077 3072 3069 3068 3067 3063 3061 3059 3058 3056 3054 3050 3047 3044 3041 3038 3036 3033 3029 3027 3025 3022 3019 3016 3013 3009 3006 3002 2999 2995 2991 2987
3175 3174 3174 3173 3172 3171 3170 3169 3168 3167 3166 3165 3164 3162 3161 3159 3158 3157 3155 3154 3153 3151 3150 3148 3147 3145 3144 3142 3140 3138 3137 3134 3132 3130 3128 3125 3123 3121 3119 3116 3114 3111 3109 3106 3104 3102 3100 3097 3095 3093 3091 3088 3085 3081 3079 3076 3071 3067 3066 3064 3061 3059 3057 3055 3053 3051 3048 3045 3041 3037 3034 3033 3029 3026 3023 3020 3018 3015 3012 3009 3005 3002 2999 2995 2992 2988 2984
3175 3175 3174 3173 3172 3171 3171 3170 3169 3168 3167 3166 3165 3163 3162 3160 3159 3157 3156 3155 3153 3152 3150 3148 3147 3145 3144 3142 3140 3138 3136 3134 3132 3130 3127 3124 3122 3120 3118 3115 3113 3110 3107 3105 3102 3100 3098 3095 3093 3091 3089 3086 3083 3079 3077 3075 3071 3066 3063 3061 3059 3056 3054 3052 3050 3047 3045 3042 3039 3035 3031 3028 3026 3022 3019 3017 3014 3011 3008 3005 3002 2999 2995 2992 2988 2985 2981
3175 3175 3174 3173 3173 3172 3171 3170 3169 3168 3167 3166 3165 3164 3162 3161 3159 3158 3157 3155 3153 3152 3150 3148 3147 3145 3144 3142 3140 3137 3135 3133 3130 3128 3126 3123 3120 3118 3116 3113 3111 3108 3106 3103 3101 3098 3096 3094 3091 3089 3087 3084 3081 3077 3074 3072 3069 3065 3061 3059 3057 3054 3052 3049 3047 3044 3041 3038 3035 3032 3028 3025 3022 3019 3016 3013 3010 3008 3005 3002 2999 2996 2992 2989 2985 2981 2977
3175 3175 3174 3174 3173 3172 3171 3170 3169 3168 3167 3166 3165 3164 3162 3161 3160 3158 3157 3155 3153 3152 3150 3148 3146 3145 3143 3141 3139 3137 3134 3132 3129 3126 3124 3121 3119 3116 3114 3111 3109 3106 3104 3102 3099 3097 3094 3092 3089 3086 3084 3082 3079 3075 3072 3068 3065 3062 3059 3056 3054 3051 3048 3045 3043 3040 3038 3035 3032 3029 3026 3022 3019 3016 3013 3010 3007 3004 3001 2999 2995 2992 2989 2986 2982 2978 2974
3176 3175 3175 3174 3173 3172 3171 3170 3169 3168 3167 3166 3165 3164 3162 3161 3160 3158 3156 3155 3153 3152 3150 3148 3146 3144 3142 3139 3137 3135 3133 3131 3128 3126 3123 3120 3118 3115 3112 3110 3107 3104 3102 3100 3097 3095 3093 3090 3087 3084 3082 3079 3077 3074 3070 3066 3062 3059 3056 3054 3051 3048 3045 3042 3039 3036 3033 3030 3028 3025 3022 3019 3015 3013 3010 3007 3004 3000 2998 2995 2992 2989 2986 2982 2979 2975 2971
3176 3175 3175 3174 3173 3172 3172 3171 3170 3168 3167 3166 3165 3164 3162 3161 3159 3158 3156 3155 3153 3151 3150 3148 3146 3144 3142 3139 3137 3135 3133 3130 3127 3125 3122 3119 3116 3113 3110 3108 3105 3102 3100 3098 3095 3093 3090 3088 3085 3083 3081 3078 3075 3072 3068 3064 3060 3056 3053 3051 3048 3045 3042 3039 3036 3032 3029 3026 3023 3021 3018 3015 3012 3009 3006 3004 3001 2998 2994 2992 2988 2985 2982 2979 2975 2971 2968
3176 3176 3175 3174 3174 3173 3172 3171 3170 3168 3167 3166 3165 3163 3162 3160 3159 3157 3156 3154 3152 3151 3149 3147 3145 3143 3141 3139 3137 3134 3131 3129 3126 3123 3121 3117 3115 3112 3109 3106 3103 3100 3097 3095 3093 3091 3088 3085 3082 3080 3078 3076 3072 3069 3065 3062 3058 3054 3051 3048 3045 3042 3039 3036 3033 3029 3025 3022 3019 3017 3014 3011 3008 3005 3003 3000 2997 2995 2991 2988 2985 2982 2979 2976 2972 2968 2964
3176 3176 3175 3174 3174 3173 3172 3171 3169 3168 3167 3166 3164 3163 3161 3160 3158 3157 3155 3153 3152 3150 3148 3146 3144 3142 3140 3138 3135 3133 3130 3127 3124 3122 3119 3116 3113 3110 3107 3104 3101 3098 3095 3092 3090 3088 3085 3082 3079 3077 3075 3072 3069 3066 3062 3059 3055 3052 3048 3045 3042 3039 3036 3033 3030 3026 3022 3019 3016 3013 3010 3006 3004 3001 2998 2996 2993 2991 2988 2985 2982 2979 2976 2972 2969 2965 2961
3176 3176 3175 3174 3173 3172 3171 3170 3169 3168 3167 3165 3164 3162 3161 3159 3158 3156 3154 3153 3151 3149 3147 3145 3143 3141 3138 3136 3134 3131 3128 3125 3122 3120 3117 3114 3112 3109 3106 3103 3100 3096 3093 3090 3088 3086 3083 3080 3077 3074 3071 3068 3065 3062 3059 3055 3052 3049 3045 3042 3038 3035 3032 3029 3026 3022 3019 3015 3012 3009 3006 3003 3000 2997 2995 2992 2990 2987 2984 2981 2978 2975 2972 2969 2966 2962 2958
3176 3175 3174 3174 3173 3172 3171 3169 3168 3167 3166 3165 3163 3162 3160 3159 3157 3155 3153 3151 3149 3148 3146 3144 3142 3139 3137 3134 3131 3129 3126 3123 3120 3117 3114 3112 3110 3107 3104 3101 3098 3095 3091 3089 3087 3084 3080 3077 3075 3072 3069 3066 3062 3059 3055 3052 3048 3045 3042 3039 3035 3032 3028 3025 3022 3018 3015 3012 3009 3006 3003 3000 2997 2994 2991 2989 2986 2984 2981 2978 2975 2972 2969 2966 2962 2959 2955
3175 3174 3174 3173 3172 3171 3170 3169 3167 3166 3165 3164 3162 3161 3159 3158 3156 3154 3153 3150 3148 3146 3145 3142 3140 3137 3135 3132 3129 3127 3124 3121 3118 3115 3112 3109 3107 3104 3101 3099 3096 3093 3089 3087 3085 3082 3079 3075 3072 3069 3067 3063 3060 3056 3052 3049 3045 3042 3039 3036 3032 3029 3025 3021 3018 3015 3011 3008 3005 3002 2999 2996 2994 2991 2988 2985 2983 2980 2977 2974 2971 2969 2966 2963 2959 2955 2952
3174 3174 3173 3172 3171 3170 3169 3168 3167 3165 3164 3163 3161 3160 3159 3157 3155 3154 3152 3150 3147 3145 3143 3141 3138 3136 3133 3130 3127 3125 3122 3119 3116 3113 3110 3107 3104 3101 3098 3095 3093 3090 3088 3085 3083 3080 3077 3074 3070 3067 3064 3060 3057 3053 3050 3046 3043 3039 3036 3033 3029 3025 3022 3018 3014 3011 3008 3004 3001 2998 2995 2993 2990 2987 2985 2982 2980 2977 2974 2971 2968 2965 2963 2960 2956 2952 2949
3174 3173 3172 3171 3170 3169 3167 3166 3166 3165 3164 3162 3161 3159 3157 3156 3154 3152 3150 3148 3146 3144 3141 3139 3136 3134 3131 3128 3125 3122 3120 3117 3114 3111 3108 3105 3103 3100 3096 3093 3090 3088 3086 3083 3080 3077 3075 3072 3068 3064 3061 3057 3054 3051 3047 3043 3040 3036 3033 3030 3026 3022 3019 3015 3011 3008 3004 3001 2998 2995 2992 2989 2987 2984 2982 2979 2976 2974 2971 2968 2965 2962 2959 2956 2953 2949 2946
3173 3172 3171 3170 3169 3168 3166 3165 3165 3164 3163 3161 3160 3158 3156 3155 3153 3151 3148 3146 3144 3142 3139 3137 3134 3132 3129 3126 3123 3120 3117 3114 3111 3108 3106 3103 3100 3098 3095 3092 3088 3085 3082 3080 3077 3074 3072 3069 3066 3062 3058 3054 3051 3048 3044 3041 3037 3033 3029 3026 3023 3019 3015 3011 3008 3004 3001 2997 2994 2991 2989 2986 2983 2981 2978 2976 2973 2970 2968 2965 2962 2959 2956 2953 2950 2946 2942
3171 3171 3169 3168 3167 3167 3166 3165 3164 3163 3162 3160 3159 3157 3155 3153 3151 3149 3146 3144 3142 3139 3137 3134 3132 3129 3127 3124 3120 3118 3115 3112 3109 3106 3103 3100 3097 3095 3092 3090 3087 3083 3080 3077 3074 3072 3069 3066 3063 3060 3056 3052 3049 3045 3042 3038 3034 3030 3026 3023 3019 3016 3012 3008 3004 3001 2997 2994 2991 2988 2985 2983 2980 2977 2975 2973 2970 2967 2964 2961 2959 2956 2953 2950 2947 2943 2939
3170 3169 3168 3167 3166 3166 3165 3164 3163 3162 3161 3159 3157 3155 3153 3151 3149 3147 3144 3142 3140 3137 3134 3132 3129 3126 3124 3121 3118 3115 3113 3110 3106 3103 3101 3098 3095 3092 3089 3087 3084 3081 3078 3075 3072 3069 3067 3064 3061 3057 3054 3050 3047 3043 3039 3035 3031 3027 3023 3020 3016 3012 3009 3005 3001 2997 2994 2990 2987 2984 2982 2979 2976 2974 2972 2970 2967 2964 2961 2958 2955 2953 2950 2947 2944 2940 2936
3169 3168 3167 3166 3165 3164 3164 3163 3162 3161 3159 3157 3155 3153 3151 3149 3147 3145 3142 3140 3137 3134 3132 3129 3126 3123 3120 3118 3115 3112 3110 3107 3103 3100 3099 3096 3093 3089 3087 3084 3081 3079 3077 3073 3070 3067 3064 3061 3058 3055 3051 3048 3044 3040 3036 3032 3028 3025 3021 3017 3013 3009 3005 3001 2998 2994 2990 2987 2984 2981 2978 2976 2973 2971 2968 2966 2964 2961 2958 2955 2952 2949 2947 2944 2941 2937 2934
3168 3167 3166 3165 3164 3163 3162 3161 3159 3159 3158 3156 3153 3151 3149 3147 3145 3143 3140 3137 3135 3132 3129 3126 3123 3120 3117 3114 3111 3108 3106 3104 3101 3098 3096 3094 3091 3088 3084 3081 3078 3076 3075 3072 3068 3064 3061 3058 3055 3052 3049 3045 3041 3037 3033 3029 3025 3021 3018 3014 3009 3006 3002 2998 2994 2991 2987 2984 2980 2978 2975 2972 2970 2967 2965 2963 2961 2958 2955 2952 2949 2946 2944 2941 2938 2934 2931
3167 3166 3165 3164 3163 3161 3160 3158 3157 3156 3155 3153 3151 3149 3147 3144 3142 3140 3137 3134 3132 3129 3126 3123 3120 3117 3114 3111 3108 3105 3103 3101 3098 3095 3093 3091 3088 3085 3081 3079 3076 3074 3072 3069 3066 3063 3059 3056 3052 3049 3045 3042 3038 3034 3030 3026 3022 3018 3014 3010 3006 3003 2999 2995 2991 2987 2984 2980 2977 2974 2971 2969 2966 2964 2962 2960 2957 2955 2952 2949 2946 2943 2941 2938 2935 2932 2928
3165 3164 3163 3162 3161 3159 3158 3156 3154 3153 3152 3150 3148 3146 3143 3141 3139 3136 3134 3131 3129 3126 3123 3120 3117 3114 3111 3108 3105 3102 3099 3097 3094 3091 3089 3088 3085 3082 3078 3076 3074 3072 3069 3066 3064 3061 3057 3054 3050 3046 3042 3038 3035 3031 3027 3023 3019 3015 3011 3007 3003 3000 2996 2992 2988 2984 2981 2977 2974 2971 2968 2966 2963 2961 2959 2956 2954 2951 2949 2946 2943 2940 2938 2935 2932 2929 2926
3163 3162 3161 3160 3159 3157 3155 3154 3152 3150 3149 3147 3145 3143 3140 3138 3135 3133 3131 3128 3126 3123 3120 3117 3114 3111 3109 3105 3102 3100 3097 3093 3090 3087 3086 3085 3083 3079 3076 3073 3071 3069 3066 3063 3061 3058 3055 3052 3048 3044 3039 3035 3031 3027 3023 3019 3016 3012 3008 3004 3000 2996 2992 2989 2985 2981 2977 2974 2971 2968 2965 2962 2960 2958 2955 2953 2951 2948 2945 2943 2940 2937 2935 2932 2929 2926 2923